NEOSSAT

Last updated on Thu Oct 30 2025 00:03:36 GMT+0000 (Coordinated Universal Time)

1 39089U 13009D 25302.46862770 .00000328 00000+0 12822-3 0 9994 2 39089 98.4093 123.0916 0010401 209.3693 150.6909 14.35694275663634
UTC large
Height (km)
Speed (km/s)
/
Latitude / Longitude
Inclination (degrees)
Orbital Period (minutes)
Azimuth
Elevation
Range (km)
Doppler Factor

Next 0 passes for location: London (51.5072 / 0.1276)

Sorry there are no passes over London.